TimeEDT,TemperatureF,Dew PointF,Humidity,Sea Level PressureIn,VisibilityMPH,Wind Direction,Wind SpeedMPH,Gust SpeedMPH,PrecipitationIn,Events,Conditions,WindDirDegrees,DateUTC
12:15 AM,54.3,52.9,95,30.12,0.5,Calm,Calm,-,N/A,Fog,Fog,0,2012-10-26 04:15:00
12:35 AM,55.6,54.1,95,30.11,5.0,Calm,Calm,-,N/A,,Overcast,0,2012-10-26 04:35:00
12:55 AM,58.8,57.4,95,30.11,0.8,ENE,5.8,-,N/A,,Overcast,60,2012-10-26 04:55:00
1:15 AM,60.6,59.0,94,30.11,3.0,ENE,8.1,-,N/A,,Overcast,70,2012-10-26 05:15:00
1:55 AM,60.8,59.0,94,30.10,4.0,NE,3.5,-,N/A,,Overcast,50,2012-10-26 05:55:00
2:35 AM,61.2,59.0,93,30.10,7.0,ENE,5.8,-,N/A,,Overcast,70,2012-10-26 06:35:00
2:55 AM,61.5,59.0,91,30.10,7.0,NE,4.6,-,N/A,,Overcast,50,2012-10-26 06:55:00
3:15 AM,61.7,58.6,90,30.10,7.0,NE,3.5,-,N/A,,Overcast,40,2012-10-26 07:15:00
3:35 AM,61.7,58.8,90,30.09,7.0,North,3.5,-,N/A,,Overcast,360,2012-10-26 07:35:00
3:55 AM,61.9,58.8,90,30.09,10.0,North,3.5,-,N/A,,Overcast,360,2012-10-26 07:55:00
4:15 AM,61.7,58.5,89,30.09,10.0,Calm,Calm,-,N/A,,Overcast,0,2012-10-26 08:15:00
4:35 AM,61.7,58.5,89,30.09,10.0,Calm,Calm,-,N/A,,Overcast,0,2012-10-26 08:35:00
4:55 AM,61.7,58.5,89,30.08,10.0,NNW,3.5,-,N/A,,Overcast,330,2012-10-26 08:55:00
5:15 AM,61.7,58.3,89,30.08,10.0,NNW,3.5,-,N/A,,Overcast,340,2012-10-26 09:15:00
5:35 AM,61.5,58.3,89,30.08,7.0,Calm,Calm,-,N/A,,Overcast,0,2012-10-26 09:35:00
5:55 AM,61.2,58.1,90,30.08,7.0,Calm,Calm,-,N/A,,Overcast,0,2012-10-26 09:55:00
6:15 AM,61.0,58.1,90,30.08,7.0,Calm,Calm,-,N/A,,Overcast,0,2012-10-26 10:15:00
6:35 AM,61.0,58.3,91,30.08,7.0,Calm,Calm,-,N/A,,Overcast,0,2012-10-26 10:35:00
6:55 AM,60.6,58.3,92,30.08,5.0,Calm,Calm,-,N/A,,Overcast,0,2012-10-26 10:55:00
7:15 AM,61.3,59.0,92,30.09,5.0,North,3.5,-,N/A,,Overcast,360,2012-10-26 11:15:00
7:35 AM,62.1,59.4,91,30.09,5.0,Calm,Calm,-,N/A,,Overcast,0,2012-10-26 11:35:00
8:15 AM,62.6,60.1,91,30.10,1.8,Calm,Calm,-,N/A,,Overcast,0,2012-10-26 12:15:00
8:35 AM,62.6,60.6,93,30.10,0.8,NNW,3.5,-,N/A,,Overcast,330,2012-10-26 12:35:00
8:55 AM,63.0,61.2,94,30.10,0.5,NNW,4.6,-,N/A,Fog,Fog,330,2012-10-26 12:55:00
9:15 AM,63.5,61.7,94,30.11,0.8,North,3.5,-,N/A,,Overcast,350,2012-10-26 13:15:00
9:35 AM,64.0,62.4,94,30.11,1.0,North,4.6,-,N/A,,Overcast,360,2012-10-26 13:35:00
9:55 AM,64.6,62.8,94,30.10,1.8,NNW,5.8,-,N/A,,Overcast,340,2012-10-26 13:55:00
10:15 AM,65.1,63.3,94,30.10,1.8,North,5.8,-,N/A,,Overcast,350,2012-10-26 14:15:00
10:55 AM,66.6,63.9,91,30.10,3.0,North,8.1,-,N/A,,Overcast,360,2012-10-26 14:55:00
11:15 AM,66.9,64.0,90,30.09,3.0,NNE,9.2,-,N/A,,Overcast,20,2012-10-26 15:15:00
11:35 AM,67.1,64.2,90,30.09,4.0,NNE,4.6,-,N/A,,Overcast,20,2012-10-26 15:35:00
12:15 PM,67.6,64.4,89,30.07,5.0,NNE,8.1,-,N/A,,Overcast,30,2012-10-26 16:15:00
12:35 PM,68.2,64.4,88,30.06,7.0,NNE,10.4,-,N/A,,Overcast,20,2012-10-26 16:35:00
12:55 PM,69.4,64.4,84,30.05,10.0,North,6.9,-,N/A,,Overcast,10,2012-10-26 16:55:00
1:15 PM,71.2,64.2,78,30.03,10.0,NNE,9.2,-,N/A,,Overcast,20,2012-10-26 17:15:00
1:35 PM,73.2,64.2,73,30.02,10.0,NNE,8.1,-,N/A,,Overcast,30,2012-10-26 17:35:00
1:55 PM,73.2,63.1,71,30.02,10.0,NNE,9.2,-,N/A,,Overcast,20,2012-10-26 17:55:00
2:15 PM,73.8,63.0,69,30.01,10.0,NNE,9.2,-,N/A,,Mostly Cloudy,20,2012-10-26 18:15:00
2:35 PM,73.8,62.8,68,30.00,10.0,NNE,8.1,-,N/A,,Scattered Clouds,30,2012-10-26 18:35:00
2:55 PM,74.1,63.0,68,29.99,10.0,NNE,10.4,-,N/A,,Mostly Cloudy,20,2012-10-26 18:55:00
3:15 PM,73.8,62.8,68,29.98,10.0,NNE,9.2,-,N/A,,Overcast,30,2012-10-26 19:15:00
3:55 PM,72.7,62.2,70,29.97,10.0,NE,9.2,-,N/A,,Overcast,40,2012-10-26 19:55:00
4:15 PM,72.5,62.6,71,29.97,10.0,NE,11.5,16.1,N/A,,Overcast,40,2012-10-26 20:15:00
4:35 PM,71.1,63.1,76,29.97,10.0,NNE,11.5,-,N/A,,Overcast,30,2012-10-26 20:35:00
4:55 PM,70.7,63.5,78,29.97,10.0,NE,10.4,-,N/A,,Overcast,40,2012-10-26 20:55:00
5:15 PM,70.5,63.5,78,29.97,10.0,NE,11.5,-,N/A,,Overcast,40,2012-10-26 21:15:00
5:35 PM,69.1,63.7,83,29.97,10.0,NNE,5.8,10.4,N/A,,Overcast,30,2012-10-26 21:35:00
5:55 PM,68.5,63.5,84,29.97,10.0,NNE,6.9,-,N/A,,Overcast,30,2012-10-26 21:55:00
6:15 PM,68.2,63.3,84,29.97,7.0,NNE,8.1,-,N/A,Rain,Rain,30,2012-10-26 22:15:00
6:35 PM,66.7,63.5,89,29.98,5.0,NNE,5.8,-,0.01,,Heavy Drizzle,30,2012-10-26 22:35:00
6:55 PM,66.2,63.5,91,29.98,5.0,NNE,4.6,-,0.02,,Drizzle,20,2012-10-26 22:55:00
7:15 PM,65.8,63.5,92,29.99,7.0,NNE,6.9,-,0.01,,Drizzle,30,2012-10-26 23:15:00
7:35 PM,65.7,63.5,93,29.98,5.0,NNE,5.8,-,0.01,,Light Drizzle,20,2012-10-26 23:35:00
7:55 PM,65.5,63.5,93,29.98,10.0,North,4.6,-,0.01,,Overcast,10,2012-10-26 23:55:00
8:15 PM,65.7,63.5,93,29.98,10.0,NNE,5.8,-,N/A,,Overcast,20,2012-10-27 00:15:00
8:35 PM,65.7,63.5,93,29.97,10.0,North,5.8,-,N/A,,Overcast,10,2012-10-27 00:35:00
8:55 PM,65.7,63.3,92,29.97,10.0,North,4.6,-,N/A,,Overcast,10,2012-10-27 00:55:00
9:15 PM,65.7,63.5,93,29.96,10.0,NNE,6.9,-,N/A,,Overcast,20,2012-10-27 01:15:00
9:35 PM,65.7,63.5,93,29.96,10.0,NNE,8.1,-,N/A,,Overcast,20,2012-10-27 01:35:00
9:55 PM,65.7,63.3,92,29.95,10.0,NE,5.8,-,N/A,,Overcast,40,2012-10-27 01:55:00
10:15 PM,65.7,63.1,92,29.95,10.0,NNE,6.9,-,N/A,,Overcast,20,2012-10-27 02:15:00
10:35 PM,65.7,63.1,92,29.94,10.0,NNE,6.9,-,N/A,,Overcast,20,2012-10-27 02:35:00
10:55 PM,65.5,63.0,92,29.94,10.0,NNE,6.9,-,N/A,,Overcast,20,2012-10-27 02:55:00
11:15 PM,65.7,63.0,91,29.93,10.0,NNE,8.1,-,N/A,,Overcast,20,2012-10-27 03:15:00
11:35 PM,65.5,62.6,90,29.92,10.0,NNE,8.1,-,N/A,,Scattered Clouds,20,2012-10-27 03:35:00
11:55 PM,65.3,62.6,91,29.92,10.0,NNE,8.1,-,N/A,,Mostly Cloudy,20,2012-10-27 03:55:00